Dewpoint
-23 -24 -7 -2 -1 -4 -0 0 -0 4 4 9 9 9 10 9 10 11 8 8 11 11 10 11 12 13 13 10 10 9 8 8 8 7 6 8 11 11 12 12 10 10 11 9 11 10 6 8 9
-18 -5 -2 -1 -5 -3 0 0 1 6 5 9 9 9 8 9 7 6 7 7 9 11 11 11 12 12 13 10 10 10 8 8 8 8 7 7 9 11 12 12 10 11 8 10 8 -2 -2 6 9
-4 -1 -1 -4 -4 -1 2 0 1 4 4 7 9 8 7 7 6 6 6 6 6 10 11 12 11 12 12 13 11 11 11 10 9 9 8 7 8 11 12 12 11 11 9 7 7 -4 -3 7 9
-3 -1 -3 -2 1 -0 0 -0 -0 0 2 3 9 8 8 5 5 5 5 5 4 7 10 11 11 12 12 12 13 10 12 11 10 9 8 8 8 11 12 12 10 11 9 6 8 -3 7 7 9
-3 -3 -4 -2 0 -0 -1 -1 -1 -0 1 2 4 9 8 3 4 1 5 6 1 2 5 9 11 11 12 12 12 12 11 9 7 6 8 8 7 8 12 12 10 11 10 7 4 -1 -0 2 7
-2 -8 -5 -1 1 -1 -1 -2 -1 0 2 2 0 4 7 1 3 0 4 5 2 -1 2 3 6 10 11 11 11 11 10 10 6 4 3 3 6 7 10 12 11 10 10 7 3 0 -1 -2 5
-3 -5 -4 -4 0 0 -1 -2 -0 0 2 1 -0 1 7 3 -1 -1 3 4 3 2 2 4 5 5 9 10 11 10 11 10 9 8 8 8 3 7 9 11 11 10 11 9 4 6 2 -2 1
-3 -6 -5 -3 -3 1 -3 -3 -0 0 2 0 -1 1 2 -0 -2 -2 -1 1 -1 -0 1 3 4 5 7 9 10 11 11 11 10 8 8 8 9 7 6 8 9 9 10 10 3 3 2 1 -2
-4 -3 -1 -2 -2 -3 -6 -5 -2 -3 -2 -1 -1 -1 -1 -1 -3 -3 -4 -4 -2 0 0 2 3 4 4 7 9 10 11 11 9 8 8 7 7 11 10 8 8 10 10 10 5 4 3 1 -2
-4 -1 -3 -6 -6 -6 -4 -4 -3 -3 -3 -0 0 -1 -1 -2 -5 -5 -4 -5 -4 -2 -1 -0 3 3 4 4 7 9 10 10 10 8 9 9 5 7 10 10 10 10 11 11 8 7 6 4 2
-6 -3 -6 -3 -3 -4 -4 -3 -3 -2 -2 -0 -1 -1 -3 -6 -5 -4 -4 -4 -5 -6 -5 -2 1 2 3 4 5 7 9 10 10 10 10 10 9 5 9 9 10 11 11 10 7 8 5 4 3
-6 -5 -4 -3 -3 -3 -3 -3 -3 -3 -2 -1 -2 -4 -6 -4 -4 -5 -6 -6 -8 -9 -9 -9 -5 1 3 5 5 4 6 8 9 10 10 10 10 7 8 9 9 11 11 11 10 8 6 5 4
-4 -4 -3 -3 -4 -3 -4 -3 -3 -4 -3 -1 -3 -4 -4 -3 -4 -4 -5 -6 -8 -10 -12 -12 -11 -7 -0 4 5 5 5 5 7 8 9 8 8 7 5 8 9 10 11 11 10 10 8 7 6
-4 -4 -4 -4 -4 -4 -3 -4 -4 -4 -3 -2 -3 -3 -4 -4 -5 -4 -4 -5 -7 -11 -13 -15 -15 -11 -6 -2 4 5 5 5 5 5 5 7 8 8 5 8 10 9 10 10 10 10 9 8 7
-5 -3 -4 -4 -5 -4 -4 -2 -2 -4 -2 -4 -3 -3 -4 -4 -4 -4 -4 -4 -5 -8 -13 -14 -15 -15 -10 -7 -2 4 6 4 5 5 6 7 7 8 7 6 9 9 8 10 10 8 8 9 8
-4 -4 -3 -5 -5 -4 -4 -1 -3 -4 -4 -4 -4 -4 -4 -5 -4 -4 -4 -4 -4 -6 -12 -14 -14 -15 -13 -8 -6 0 5 5 5 5 6 6 7 8 7 8 10 9 8 9 10 8 9 9 8
-4 -6 -6 -3 -5 -5 -4 -2 -5 -4 -4 -4 -4 -4 -4 -4 -4 -4 -4 -4 -4 -6 -11 -12 -14 -16 -16 -10 -5 -4 3 6 6 6 7 7 6 7 7 8 8 8 9 9 10 8 7 8 7
-4 -6 -6 -5 -4 -4 -3 -3 -5 -6 -4 -4 -4 -4 -4 -4 -4 -4 -4 -3 -4 -6 -9 -12 -13 -16 -16 -10 -5 -4 3 6 6 7 7 8 7 6 8 9 8 8 9 9 10 10 7 8 7
-5 -5 -5 -6 -4 -4 -3 -2 -4 -5 -4 -5 -5 -5 -5 -5 -4 -3 -3 -3 -4 -5 -8 -12 -15 -10 -10 -9 -6 -3 4 5 6 7 7 8 8 9 8 8 9 5 8 8 9 10 8 7 7
-3 -3 -4 -6 -3 -3 -2 -1 -3 -5 -5 -5 -5 -5 -5 -6 -5 -3 -3 -4 -4 -6 -6 -12 -9 -4 -2 -2 -4 -3 5 6 6 6 7 6 9 9 9 9 9 7 7 8 9 10 8 7 7
-2 -2 -2 -1 -1 -1 -2 -7 -6 -6 -6 -5 -5 -5 -6 -6 -6 -4 -4 -4 -5 -5 -6 -13 -4 -2 -1 -1 -1 -2 3 5 6 6 7 6 8 9 9 9 7 7 7 8 9 9 8 7 7
-2 -2 -2 -0 0 -7 -5 -12 -6 -6 -5 -5 -5 -5 -6 -6 -5 -5 -4 -4 -5 -5 -7 -14 -6 -3 -1 -1 -0 -1 1 4 4 5 7 5 8 9 8 7 7 8 8 9 9 8 8 8 7
0 -2 -1 -1 0 -1 -2 -4 -6 -6 -7 -5 -5 -6 -6 -6 -5 -5 -5 -5 -5 -7 -6 -14 -10 -6 -3 -1 -0 -0 -0 2 4 5 6 7 7 8 9 8 8 9 10 9 9 9 8 8 7
-2 -1 -0 -2 -1 -4 -0 -9 -13 -7 -10 -7 -7 -6 -6 -5 -5 -4 -4 -4 -5 -5 -6 -14 -10 -4 -2 -1 -0 -0 -0 0 2 4 5 7 7 7 7 8 9 9 9 9 9 9 8 8 8
-1 0 -4 -4 -0 -7 -6 -9 -14 -12 -9 -9 -8 -6 -5 -5 -5 -5 -4 -4 -4 -5 -8 -15 -10 -2 -1 -1 -0 0 -0 -1 -0 2 5 6 7 7 6 7 6 8 9 9 9 9 9 8 8
-2 -3 -4 -17 -0 -5 -6 -7 -14 -10 -8 -9 -8 -7 -6 -5 -5 -5 -5 -4 -5 -6 -10 -15 -10 -6 -1 -1 -0 -0 -0 -1 -1 -1 3 5 6 7 6 6 6 8 9 8 8 9 9 8 9
0 1 -4 -2 -4 -2 -9 -8 -16 -10 -12 -7 -7 -6 -7 -6 -6 -6 -6 -6 -7 -8 -11 -16 -10 -7 -1 -1 -0 -0 0 -0 -1 -2 0 4 6 6 7 6 7 7 8 9 8 9 9 8 7
-1 -3 -1 -1 -12 -9 -3 -1 -11 -12 -15 -8 -7 -7 -8 -8 -8 -7 -7 -7 -7 -9 -13 -16 -12 -8 -1 -0 0 1 1 0 -0 -1 -2 -1 4 6 6 7 7 6 7 9 9 9 9 9 7
-3 -1 -5 -2 -2 -3 -3 -5 -5 -14 -13 -10 -9 -9 -10 -11 -13 -10 -10 -10 -10 -12 -17 -16 -13 -3 -1 -0 1 1 0 0 0 -0 -1 -2 -1 4 6 7 6 7 8 8 9 9 9 9 9
-2 -1 -5 -2 -2 -2 -1 -4 -8 -9 -9 -8 -8 -8 -11 -12 -14 -14 -12 -13 -13 -12 -17 -16 -13 -1 -1 -1 1 0 0 0 0 -0 -0 -2 -3 -1 5 7 7 7 8 8 8 8 8 8 7
Wind_Speed
2 8 8 3 4 5 3 5 4 8 4 9 9 9 7 5 3 1 8 10 11 13 14 13 10 8 9 11 10 10 9 8 8 8 6 7 9 10 9 11 11 12 15 12 11 9 10 12 10
8 10 2 0 4 3 2 2 9 5 8 8 11 6 5 3 3 3 5 15 11 11 11 8 8 11 9 12 11 11 10 11 10 9 8 7 8 10 10 12 11 10 12 11 11 9 10 13 11
7 3 1 3 3 3 3 4 5 5 14 11 4 8 3 2 5 9 14 17 15 11 9 8 10 10 13 7 17 12 12 13 11 10 9 7 8 10 11 14 13 11 9 9 12 9 11 15 15
4 2 3 4 5 4 5 3 9 4 13 10 6 5 4 9 3 11 11 15 12 11 10 9 8 8 11 17 8 19 14 12 11 10 10 9 8 9 14 16 15 13 9 10 10 11 13 17 17
3 0 3 3 4 4 5 10 10 5 4 10 7 4 4 5 6 11 10 15 14 13 14 10 8 9 8 13 12 7 7 11 11 9 10 10 10 11 14 16 14 13 9 10 8 10 11 15 17
3 1 4 2 3 5 5 8 4 7 7 6 6 2 6 3 7 12 10 15 20 16 16 16 12 11 10 7 10 8 14 13 8 9 8 10 10 11 13 17 16 15 9 10 8 9 9 13 17
1 3 2 5 5 4 2 4 4 4 5 3 3 3 8 4 12 12 12 11 18 19 14 14 14 12 10 8 8 6 12 20 12 10 9 9 10 11 12 15 16 14 12 9 9 9 9 12 15
4 4 3 4 2 1 0 3 4 2 1 1 2 3 3 9 14 13 11 14 16 17 15 12 11 11 10 8 7 11 18 13 21 14 10 10 8 10 13 15 16 16 15 11 11 11 11 11 14
4 4 3 3 4 2 3 2 2 4 4 4 1 0 4 10 12 14 14 12 15 14 14 12 11 11 10 7 9 9 13 17 13 14 11 12 9 9 11 15 18 19 18 16 14 11 10 12 14
6 4 2 2 3 3 2 3 1 3 4 4 6 5 7 13 13 15 16 15 14 15 15 13 11 10 9 8 9 12 12 17 17 19 20 15 18 10 11 12 18 20 21 21 15 13 11 12 12
4 4 5 5 6 6 6 1 3 3 2 3 8 10 11 11 11 12 12 14 15 15 15 15 13 11 9 7 5 10 14 16 19 20 19 17 17 16 12 13 18 22 24 23 21 17 12 12 13
6 8 6 4 6 5 4 9 5 6 6 8 10 11 10 8 11 11 12 12 14 14 16 16 14 13 11 8 8 10 12 17 19 20 21 19 16 24 14 15 18 23 26 28 19 18 16 12 12
5 4 7 6 5 4 8 9 10 14 10 13 11 8 8 9 11 12 12 13 13 14 15 15 15 14 11 10 8 8 10 11 17 22 20 19 21 19 19 16 19 22 25 25 22 17 19 16 12
4 8 8 5 3 4 4 8 9 6 12 11 10 11 10 12 12 12 14 14 15 14 16 16 15 14 12 11 10 10 11 12 13 12 17 19 22 23 16 21 21 22 23 21 18 19 19 17 14
9 3 1 4 4 1 3 7 8 10 12 10 12 15 15 15 13 14 15 14 15 15 15 16 16 14 13 12 11 10 10 15 13 12 14 15 19 24 26 29 26 25 24 23 20 19 19 16 15
2 2 2 2 1 2 4 8 7 13 12 12 12 14 16 16 13 14 16 16 18 16 16 16 17 16 14 13 11 11 10 12 13 11 13 17 17 27 32 24 27 27 27 28 23 22 22 20 17
3 1 1 1 3 1 3 7 9 13 14 13 11 12 14 14 13 13 15 15 19 16 15 17 17 17 15 14 10 10 11 11 11 9 12 15 20 29 31 26 22 27 29 31 26 25 24 23 17
3 3 4 2 3 2 5 13 12 20 20 15 11 12 12 13 13 14 13 16 18 16 16 18 18 17 16 14 12 7 9 10 11 9 11 14 23 31 38 32 26 27 31 30 28 26 25 20 16
1 2 5 3 1 2 3 8 11 16 14 9 10 7 4 5 9 10 14 18 17 16 16 18 18 16 15 14 12 5 7 9 10 10 7 8 18 27 35 34 29 27 32 30 28 26 23 21 18
3 2 4 6 2 2 5 14 12 9 9 8 8 9 9 9 8 9 11 12 15 18 17 17 16 13 11 10 11 7 1 5 4 3 3 7 14 26 31 30 31 28 29 27 27 24 25 23 21
3 2 2 4 9 4 5 7 5 1 8 9 11 9 7 6 7 8 12 14 17 17 18 16 14 12 11 12 9 6 3 0 2 1 2 5 6 28 34 29 28 26 28 26 24 22 22 25 23
2 1 2 4 6 2 4 4 6 4 6 6 14 12 7 8 8 8 10 13 15 17 16 15 13 12 11 11 9 6 1 1 3 2 2 3 0 29 25 28 27 23 25 26 24 20 21 21 21
2 1 1 2 2 2 4 4 7 2 6 7 12 11 8 7 8 9 11 13 14 13 15 14 13 13 10 10 9 6 2 3 4 4 2 8 12 6 22 28 26 24 25 25 23 21 19 19 19
1 1 1 2 2 3 3 4 6 3 4 2 5 9 7 5 7 9 10 11 15 14 15 13 12 11 9 9 9 6 4 3 4 5 3 10 12 11 10 13 19 20 19 21 22 22 20 19 18
0 3 4 5 4 4 3 3 9 5 3 4 4 2 4 5 8 8 9 12 14 14 12 12 11 9 8 8 8 5 4 4 2 5 5 7 12 14 11 17 11 14 18 19 19 22 21 21 18
2 2 4 4 2 5 1 5 3 3 4 3 1 3 7 9 6 10 11 10 12 12 11 10 9 8 9 9 7 6 4 5 4 2 6 7 10 13 14 11 12 14 16 13 15 18 18 20 18
1 2 2 6 2 3 3 7 3 2 1 2 1 2 6 4 8 11 11 10 9 10 11 9 8 7 6 7 6 6 5 3 3 3 3 6 9 13 11 13 10 10 15 16 14 18 24 19 15
1 2 3 3 1 4 5 6 5 3 2 4 4 4 3 5 6 8 11 10 8 8 9 8 8 7 5 7 6 4 5 4 2 1 3 4 6 11 13 9 5 2 15 19 16 17 17 19 20
1 1 2 2 3 4 1 6 7 6 6 8 9 7 5 7 7 6 8 8 7 6 7 7 6 5 6 6 6 6 5 3 1 2 3 4 6 7 14 10 5 3 11 19 18 15 15 15 18
2 2 4 4 4 1 3 7 3 5 6 7 9 7 6 6 6 6 6 5 6 5 5 5 4 4 5 7 7 7 6 5 3 1 3 5 8 8 13 14 12 9 13 13 18 18 16 7 8
Wind_Direction
90 116 129 112 59 68 10 35 106 39 40 40 64 68 107 74 71 19 324 336 347 352 349 339 277 290 248 231 232 231 229 212 204 192 190 188 179 178 167 148 137 142 135 150 164 171 152 151 150
115 121 103 16 88 63 308 340 46 84 68 76 81 78 46 77 34 350 344 331 346 348 349 330 329 290 285 238 230 236 231 220 207 202 195 196 182 183 175 161 145 155 147 142 134 144 146 144 123
107 63 347 105 99 119 129 18 34 80 77 68 78 60 62 31 351 349 347 327 330 330 337 344 305 300 283 290 230 220 227 221 210 206 202 202 192 185 184 168 153 163 152 143 125 131 131 140 130
68 10 268 82 128 2 109 26 5 108 73 65 110 74 87 57 16 329 337 322 324 319 319 338 341 320 286 263 271 234 225 219 219 211 209 205 201 191 181 174 160 177 180 134 143 128 132 142 141
27 77 20 95 71 100 70 39 15 25 95 48 72 147 116 78 309 330 346 329 331 339 326 310 327 333 318 285 274 269 194 189 203 208 220 212 209 198 187 184 175 176 182 154 146 136 139 143 144
342 115 54 84 85 122 60 42 40 38 50 40 49 94 132 23 301 337 344 325 320 339 335 327 310 294 323 333 273 219 209 222 198 188 207 210 207 202 198 190 184 184 205 175 149 136 140 147 150
140 80 177 95 159 65 91 37 67 14 45 69 17 36 161 259 338 337 334 315 314 327 333 331 329 316 290 306 265 245 219 205 195 208 201 204 208 209 201 196 194 196 201 193 166 155 146 153 154
349 94 110 31 50 109 269 25 114 62 216 154 8 159 208 303 325 316 318 310 315 322 331 329 329 333 312 286 267 216 213 199 202 195 210 212 205 212 214 209 208 208 205 197 172 158 158 152 153
345 63 56 34 61 116 75 75 30 339 200 222 76 277 266 294 313 311 318 318 316 322 328 332 326 329 324 285 264 253 219 211 188 208 232 234 223 220 225 219 214 208 209 194 175 168 156 153 147
61 76 122 56 69 22 73 32 347 319 284 193 155 170 264 295 311 316 323 327 326 323 325 330 324 323 324 316 258 246 230 206 215 236 226 222 220 227 237 229 218 208 208 207 184 174 165 148 153
45 122 149 58 58 17 336 308 297 257 304 161 202 259 292 304 315 319 318 323 330 328 324 326 321 313 306 305 297 259 234 230 225 224 215 215 213 216 226 234 223 207 208 174 178 175 158 153 148
96 59 114 101 65 12 349 315 277 231 244 258 273 280 292 308 310 316 317 324 330 329 328 326 325 316 302 289 276 245 245 232 233 231 231 229 213 209 228 235 226 213 210 190 188 176 162 160 153
82 135 96 109 75 301 295 285 266 258 252 256 275 274 293 294 297 308 311 322 325 323 325 326 327 324 310 285 270 258 251 239 234 239 237 236 222 227 234 239 226 219 213 220 185 189 179 165 161
120 128 132 117 96 236 246 277 313 260 215 246 265 279 286 286 297 305 309 319 322 323 323 325 324 324 315 299 280 263 243 254 243 251 235 235 230 220 214 236 230 218 211 205 209 198 184 181 171
141 102 194 193 124 289 312 281 228 239 213 255 255 258 263 267 291 305 311 313 321 322 321 321 326 327 321 307 291 269 265 251 260 255 247 227 226 220 226 222 222 221 213 206 213 187 178 180 186
188 95 107 221 73 152 62 276 258 213 225 246 264 276 251 256 275 296 302 311 319 317 317 319 320 322 324 316 303 275 268 254 255 261 248 226 224 215 212 218 214 218 206 210 198 193 188 192 195
4 246 82 207 139 230 139 275 276 223 231 246 263 275 277 251 267 267 274 296 316 316 316 317 322 319 319 318 308 282 264 261 258 273 260 240 234 218 208 210 217 214 211 202 199 196 201 201 196
310 359 322 300 196 193 259 261 274 299 229 244 265 280 280 260 266 267 274 306 317 317 316 315 320 321 321 320 319 284 257 252 261 277 263 291 244 215 209 215 209 209 208 207 203 199 203 206 198
347 354 296 303 113 314 248 280 276 295 219 241 272 285 306 317 288 278 296 304 315 319 313 317 322 325 324 321 320 272 231 249 254 274 270 292 216 201 206 210 204 203 209 205 200 199 201 193 193
33 334 314 283 333 329 294 282 267 246 239 230 252 275 283 292 291 293 293 304 310 314 317 317 327 333 327 319 318 322 234 228 255 286 335 287 222 193 201 202 194 196 206 200 198 196 193 198 196
49 113 27 260 318 267 298 302 322 115 205 229 247 261 276 274 288 280 285 295 302 310 317 324 330 334 338 327 323 312 221 101 54 341 285 320 263 180 198 198 182 189 206 199 193 196 197 194 197
206 14 338 313 8 316 33 281 310 232 235 248 245 237 242 279 295 279 273 283 301 310 322 329 331 332 347 336 332 332 280 24 42 37 41 270 45 169 165 177 177 181 192 195 195 199 198 200 204
195 289 257 295 327 1 9 67 271 86 269 242 246 229 259 271 293 292 295 307 307 319 329 336 333 333 345 348 341 344 11 37 74 49 59 168 198 143 144 172 180 188 191 191 197 201 194 198 206
310 245 277 3 60 33 237 122 285 223 223 200 223 243 248 271 290 307 299 306 313 329 329 336 340 346 351 355 339 353 345 38 86 91 122 167 183 202 200 148 181 181 184 189 197 205 204 198 203
318 55 338 353 11 207 155 45 246 286 244 171 171 250 279 286 305 304 301 306 313 315 331 336 347 352 2 5 358 356 342 326 111 113 126 159 173 174 177 203 202 202 198 197 199 196 201 205 210
39 124 144 228 302 274 294 237 251 177 143 121 96 302 300 308 289 312 313 312 309 316 337 342 349 356 358 16 11 355 345 306 310 96 151 167 173 157 173 172 206 204 193 201 212 194 193 200 200
249 48 146 103 45 30 252 284 332 236 237 147 123 291 311 312 316 316 314 316 324 325 333 346 349 1 11 30 17 358 355 342 327 312 184 159 181 168 164 179 175 200 195 196 202 210 212 207 224
354 182 65 10 46 303 295 286 235 317 285 207 207 257 269 308 310 311 314 320 325 327 333 348 354 358 17 17 34 27 17 16 331 277 226 183 171 190 178 174 167 230 203 196 197 209 205 207 203
126 56 76 112 134 167 287 275 210 206 180 189 188 200 277 305 310 307 308 318 319 332 336 351 5 16 24 29 27 27 32 359 16 186 182 189 196 182 176 175 175 227 198 196 195 188 195 206 207
310 199 170 125 255 173 145 274 223 217 181 176 184 212 247 290 310 309 308 315 318 328 353 354 17 58 36 29 23 27 39 36 6 42 163 181 196 184 161 171 155 162 141 175 198 210 209 206 192
Height
1524 1524 1525 1526 1537 1540 1543 1541 1535 1537 1538 1540 1539 1541 1546 1548 1550 1555 1551 1548 1545 1542 1540 1539 1538 1537 1537 1539 1540 1540 1540 1541 1541 1542 1543 1543 1543 1544 1547 1547 1548 1548 1549 1550 1551 1551 1552 1553 1552
1524 1525 1525 1526 1542 1553 1554 1543 1542 1539 1540 1541 1541 1545 1547 1550 1549 1550 1549 1546 1544 1542 1540 1538 1538 1537 1535 1536 1536 1538 1540 1540 1540 1541 1542 1542 1543 1544 1546 1547 1548 1549 1548 1549 1549 1550 1551 1552 1553
1526 1525 1526 1530 1544 1552 1551 1543 1541 1541 1539 1541 1545 1547 1550 1551 1551 1550 1548 1544 1542 1540 1538 1537 1537 1535 1534 1532 1532 1534 1537 1539 1539 1539 1541 1542 1542 1543 1545 1546 1548 1549 1549 1549 1548 1549 1551 1552 1555
1524 1529 1529 1537 1544 1543 1545 1543 1541 1542 1541 1542 1544 1549 1551 1551 1550 1549 1546 1542 1540 1538 1536 1536 1534 1533 1532 1532 1531 1529 1533 1536 1537 1538 1539 1540 1541 1542 1543 1545 1547 1548 1548 1548 1549 1549 1551 1552 1554
1525 1526 1537 1540 1539 1543 1543 1542 1541 1542 1542 1543 1543 1549 1550 1550 1550 1548 1544 1541 1538 1537 1534 1533 1533 1532 1530 1530 1529 1530 1527 1532 1534 1535 1538 1539 1540 1542 1543 1544 1545 1547 1548 1548 1549 1550 1551 1552 1553
1525 1526 1543 1547 1543 1541 1543 1543 1543 1543 1544 1544 1544 1547 1549 1549 1548 1546 1544 1540 1536 1535 1532 1530 1530 1530 1529 1528 1527 1527 1526 1528 1531 1532 1537 1538 1539 1541 1542 1543 1544 1545 1547 1548 1549 1550 1551 1552 1554
1526 1532 1538 1541 1546 1544 1544 1543 1544 1545 1545 1546 1545 1546 1549 1547 1545 1544 1542 1539 1535 1533 1531 1529 1527 1526 1526 1527 1526 1525 1527 1526 1528 1532 1534 1536 1537 1539 1541 1542 1544 1545 1546 1548 1549 1551 1551 1552 1554
1526 1528 1533 1540 1547 1551 1544 1544 1544 1545 1545 1545 1544 1545 1546 1545 1543 1541 1539 1535 1533 1531 1529 1528 1526 1525 1524 1524 1524 1523 1525 1524 1526 1527 1533 1535 1535 1537 1540 1541 1543 1545 1546 1547 1548 1550 1552 1552 1553
1527 1537 1547 1545 1544 1547 1545 1545 1545 1545 1544 1543 1543 1543 1542 1541 1540 1538 1535 1533 1531 1529 1527 1525 1524 1522 1522 1521 1521 1520 1522 1523 1523 1526 1530 1531 1533 1536 1538 1539 1541 1543 1545 1546 1547 1550 1552 1553 1552
1528 1544 1544 1543 1543 1547 1546 1545 1545 1545 1543 1543 1543 1541 1540 1540 1538 1535 1532 1530 1529 1527 1524 1523 1521 1520 1518 1518 1518 1518 1518 1520 1521 1522 1528 1529 1530 1533 1535 1536 1538 1541 1543 1544 1544 1547 1551 1552 1554
1532 1543 1542 1544 1543 1545 1545 1545 1545 1543 1541 1540 1540 1538 1538 1536 1535 1533 1531 1529 1525 1523 1521 1520 1518 1517 1516 1515 1515 1515 1514 1516 1519 1520 1521 1523 1525 1530 1532 1534 1536 1538 1540 1540 1544 1546 1549 1553 1554
1538 1540 1540 1543 1543 1546 1546 1545 1543 1541 1539 1538 1537 1536 1535 1534 1533 1531 1530 1528 1524 1521 1518 1517 1515 1514 1513 1512 1512 1512 1512 1512 1514 1515 1517 1520 1522 1525 1529 1532 1533 1535 1537 1538 1542 1545 1546 1552 1554
1539 1541 1541 1543 1542 1545 1546 1545 1543 1538 1536 1536 1535 1534 1533 1532 1531 1530 1528 1527 1523 1520 1517 1513 1511 1509 1509 1509 1509 1508 1508 1508 1509 1510 1513 1516 1519 1521 1527 1530 1532 1533 1535 1538 1539 1543 1545 1549 1554
1540 1540 1542 1542 1542 1544 1545 1543 1543 1533 1533 1533 1533 1531 1530 1529 1528 1527 1526 1524 1522 1519 1516 1512 1509 1507 1506 1504 1504 1504 1504 1504 1504 1505 1507 1510 1513 1518 1521 1526 1529 1531 1534 1536 1539 1540 1543 1546 1550
1540 1543 1543 1542 1542 1543 1544 1540 1536 1532 1531 1530 1530 1528 1527 1526 1525 1524 1522 1521 1519 1516 1513 1511 1508 1505 1502 1501 1500 1499 1499 1500 1499 1499 1502 1505 1507 1510 1514 1519 1524 1529 1532 1535 1539 1541 1544 1546 1550
1541 1541 1545 1542 1541 1542 1545 1543 1529 1529 1528 1527 1527 1525 1524 1523 1521 1520 1519 1518 1516 1514 1511 1508 1505 1503 1500 1497 1496 1495 1494 1495 1496 1496 1497 1498 1501 1505 1510 1514 1517 1524 1528 1532 1536 1540 1543 1546 1550
1544 1548 1539 1541 1540 1541 1543 1541 1529 1529 1527 1525 1524 1523 1521 1520 1518 1516 1515 1515 1514 1512 1509 1506 1503 1501 1498 1496 1493 1491 1491 1491 1492 1490 1491 1491 1494 1499 1504 1509 1513 1519 1524 1528 1533 1537 1541 1545 1548
1550 1547 1543 1539 1540 1540 1541 1535 1528 1525 1524 1523 1521 1520 1519 1517 1516 1514 1513 1513 1512 1509 1506 1504 1501 1498 1496 1494 1491 1488 1488 1488 1487 1487 1488 1485 1486 1491 1498 1504 1509 1515 1520 1525 1530 1534 1539 1542 1546
1545 1545 1549 1539 1540 1538 1536 1534 1524 1522 1522 1520 1519 1518 1517 1516 1514 1514 1513 1511 1509 1507 1505 1502 1499 1496 1494 1491 1489 1487 1486 1485 1484 1484 1484 1482 1482 1487 1493 1500 1505 1511 1517 1520 1526 1530 1535 1540 1544
1546 1546 1550 1544 1539 1540 1536 1527 1518 1517 1518 1518 1517 1516 1516 1515 1514 1512 1511 1508 1506 1504 1503 1500 1497 1494 1491 1488 1486 1485 1483 1482 1482 1481 1479 1479 1479 1482 1490 1495 1500 1507 1514 1518 1522 1527 1531 1537 1541
1551 1549 1554 1558 1546 1538 1536 1528 1514 1513 1515 1516 1516 1515 1515 1514 1512 1512 1509 1507 1505 1503 1501 1498 1495 1492 1490 1487 1485 1483 1482 1481 1481 1479 1479 1477 1476 1478 1486 1493 1498 1504 1512 1515 1520 1524 1529 1532 1538
1547 1553 1551 1551 1556 1544 1538 1550 1526 1515 1515 1514 1514 1514 1514 1512 1511 1510 1508 1506 1504 1501 1499 1496 1494 1491 1489 1486 1484 1481 1480 1480 1479 1478 1477 1477 1476 1477 1484 1491 1497 1503 1508 1513 1517 1522 1526 1531 1535
1550 1552 1551 1550 1553 1552 1543 1560 1528 1515 1516 1514 1513 1513 1512 1511 1510 1508 1506 1504 1502 1499 1497 1495 1492 1489 1487 1485 1483 1481 1480 1478 1479 1478 1477 1478 1482 1479 1482 1490 1496 1502 1507 1512 1516 1519 1524 1528 1534
1551 1551 1551 1550 1556 1581 1546 1552 1531 1520 1511 1511 1512 1512 1510 1510 1509 1506 1505 1503 1500 1498 1496 1494 1491 1488 1486 1484 1482 1481 1480 1479 1479 1478 1477 1479 1481 1481 1484 1489 1496 1501 1506 1510 1513 1517 1522 1527 1531
1551 1553 1578 1565 1570 1564 1549 1558 1526 1511 1509 1508 1510 1512 1510 1510 1508 1505 1503 1501 1498 1497 1496 1493 1490 1487 1485 1484 1483 1481 1479 1479 1479 1478 1478 1480 1481 1484 1487 1491 1496 1499 1504 1507 1511 1515 1520 1524 1528
1551 1554 1575 1561 1566 1561 1551 1541 1515 1507 1508 1508 1509 1510 1510 1510 1508 1505 1502 1500 1498 1495 1494 1492 1491 1487 1484 1483 1482 1480 1479 1478 1479 1480 1481 1481 1482 1485 1488 1490 1494 1499 1502 1505 1509 1509 1516 1521 1525
1552 1563 1557 1578 1596 1576 1547 1525 1510 1508 1507 1507 1508 1508 1508 1508 1507 1505 1501 1499 1496 1494 1492 1491 1490 1488 1486 1485 1482 1480 1479 1479 1477 1476 1477 1479 1481 1482 1485 1489 1493 1496 1500 1503 1507 1510 1514 1518 1521
1554 1555 1563 1574 1565 1562 1552 1536 1522 1506 1505 1506 1507 1506 1506 1506 1504 1503 1501 1498 1496 1494 1492 1491 1489 1487 1486 1484 1483 1482 1479 1478 1477 1477 1477 1478 1480 1482 1485 1489 1492 1495 1498 1501 1505 1509 1512 1515 1517
1559 1561 1557 1560 1565 1573 1581 1531 1510 1501 1499 1501 1501 1503 1503 1503 1501 1501 1500 1498 1496 1494 1492 1490 1489 1488 1486 1485 1483 1481 1481 1479 1478 1477 1477 1478 1480 1482 1485 1489 1491 1493 1496 1499 1503 1507 1510 1511 1514
1552 1546 1550 1563 1566 1576 1572 1538 1500 1501 1499 1499 1499 1499 1499 1499 1498 1499 1498 1498 1496 1494 1492 1490 1489 1488 1487 1485 1484 1482 1481 1479 1478 1477 1476 1478 1480 1483 1484 1489 1492 1494 1495 1498 1502 1506 1507 1510 1512